Theta_e
319 318 317 318 315 313 312 314 315 313 311 311 311 311 311 311 311 309 309 309 310 309 309 308 305 302 302 301 302 302 303 303 302 302 303 304 306 307 306 304 302 302
319 316 315 317 317 314 311 311 312 312 310 309 309 309 309 309 309 308 309 311 310 310 310 309 307 305 304 303 303 303 303 303 302 301 302 303 303 304 304 302 302 302
319 317 315 317 317 315 313 312 312 311 309 309 309 309 307 307 308 308 308 310 310 311 312 311 311 310 307 304 303 304 305 305 303 303 302 302 302 303 304 304 305 304
319 318 318 318 317 316 314 313 313 312 310 309 309 309 308 307 307 307 307 308 309 310 312 312 311 311 309 306 304 306 308 307 307 306 304 303 303 303 303 304 306 305
317 318 319 318 318 317 315 314 314 313 311 310 309 309 309 310 309 307 306 307 308 310 312 312 311 311 310 307 306 307 308 308 308 308 306 305 305 304 304 304 304 305
316 317 318 319 318 317 316 315 314 315 313 311 310 310 310 310 311 310 307 306 306 309 311 311 311 310 310 309 309 309 309 309 309 308 307 307 307 307 306 305 304 305
316 317 318 319 318 317 317 315 314 315 315 313 312 311 311 311 312 312 310 307 306 307 309 310 310 310 310 310 310 310 310 310 309 309 308 309 309 308 307 306 305 305
317 317 317 318 318 317 317 317 316 315 316 315 314 312 312 312 312 313 312 310 307 306 307 308 309 310 310 310 309 310 311 310 310 310 309 309 309 310 309 308 307 306
317 317 317 318 318 317 317 318 317 317 316 316 315 313 313 313 313 313 313 312 310 309 308 308 309 310 311 310 309 310 311 311 311 310 310 309 309 309 310 309 308 308
318 318 318 318 319 318 317 317 317 317 317 316 315 314 314 314 314 314 314 314 313 312 312 311 311 311 311 312 311 310 310 311 311 311 310 310 310 310 310 309 309 309
319 319 318 317 318 318 317 317 318 318 317 317 316 315 314 314 314 315 315 314 314 314 314 315 315 314 314 314 313 312 311 311 311 311 311 311 310 311 310 310 309 309
320 320 320 320 319 319 318 318 318 318 318 318 316 315 315 315 315 315 315 315 315 315 315 316 316 316 316 316 315 314 313 313 312 312 312 312 311 312 312 311 310 309
320 320 320 320 319 319 319 319 319 318 319 319 318 316 316 316 316 316 315 315 315 315 316 316 317 317 317 317 316 316 316 315 314 313 313 312 312 312 312 312 312 311
320 319 319 318 319 319 319 319 319 319 319 319 318 317 317 317 316 316 316 316 316 316 316 316 317 317 317 317 317 317 317 316 316 315 314 313 312 312 312 312 312 312
319 319 319 318 319 319 319 319 318 319 318 318 317 316 316 315 315 316 317 317 317 318 317 317 318 318 318 318 318 317 317 317 317 317 316 316 315 315 314 313 312 312
320 320 320 319 319 319 318 318 318 318 317 317 317 316 315 315 315 316 317 316 317 318 318 318 317 317 317 316 316 315 315 315 316 316 316 316 316 316 315 314 313 313
319 320 321 320 320 320 319 318 317 317 316 317 317 317 316 316 317 317 317 317 318 318 318 318 317 317 317 316 317 317 317 317 317 317 317 317 317 316 316 316 315 314
319 320 321 320 320 319 318 317 317 316 317 318 318 318 318 318 317 317 317 317 317 318 318 317 317 316 317 317 317 316 316 316 317 318 318 318 318 318 318 317 316 314
319 319 319 319 320 319 318 317 316 316 318 319 319 318 318 317 317 317 316 315 316 317 317 317 316 316 316 314 312 311 309 309 311 313 316 318 318 318 318 317 316 314
316 317 317 318 318 318 318 318 317 317 319 318 317 317 317 317 316 317 316 316 316 317 317 316 314 314 313 311 311 309 307 306 307 311 314 317 318 317 316 315 315 313
313 314 315 316 316 316 317 318 318 318 317 316 316 316 316 316 317 317 317 316 316 315 314 314 313 312 312 312 311 309 307 306 309 312 315 316 316 315 314 313 312 312
312 312 313 314 313 313 313 314 313 313 313 313 314 313 314 314 314 314 314 313 313 313 313 312 312 312 312 311 311 310 308 308 310 312 313 314 313 312 312 311 311 311
310 310 309 309 308 308 309 309 309 309 309 310 310 311 311 311 311 311 311 311 311 311 311 312 312 312 312 311 311 310 308 308 310 310 311 311 311 311 310 310 310 310
309 309 309 308 307 306 307 308 308 308 308 307 308 308 308 308 309 309 310 311 310 310 311 312 312 312 312 311 311 310 309 308 309 309 309 309 308 308 307 306 306 306
308 309 309 309 308 306 307 308 308 307 307 306 307 307 307 307 307 307 309 311 311 311 312 313 313 313 312 311 310 310 309 308 308 308 307 307 306 305 305 304 303 303
306 307 308 308 308 307 307 307 307 307 307 306 306 306 306 306 305 305 307 309 311 312 313 313 313 312 311 310 309 309 308 308 307 306 306 305 305 304 304 303 302 302
Wind_Speed
25 20 13 18 20 18 18 20 19 19 19 18 18 17 17 16 14 13 13 14 14 14 14 13 13 14 14 14 14 13 13 12 11 9 8 9 9 8 9 9 8 7
24 15 8 20 24 18 18 19 19 19 19 18 18 18 17 17 16 15 14 15 14 13 13 13 13 13 13 13 13 13 13 13 12 10 9 10 9 8 9 9 9 9
20 14 11 22 26 22 19 19 19 19 19 18 18 18 18 18 17 16 15 15 14 14 13 12 12 12 11 12 11 11 12 12 12 11 10 10 9 9 9 9 9 9
20 20 19 23 26 25 22 20 20 21 19 19 18 18 18 18 18 17 17 16 15 15 14 13 13 12 11 11 11 10 11 11 11 9 9 10 8 8 8 7 8 9
23 26 27 27 28 28 26 22 22 22 22 20 19 19 19 18 18 18 18 18 17 16 15 14 14 13 11 11 10 10 10 10 10 8 8 8 7 6 6 5 6 7
29 29 31 30 31 32 30 25 23 23 24 22 21 20 19 19 18 17 17 18 18 17 16 15 14 13 11 10 9 9 8 9 9 8 7 7 7 5 5 4 4 6
32 30 31 30 31 33 33 29 25 25 25 24 22 22 20 20 19 17 16 16 17 18 17 16 15 13 12 11 10 9 8 8 8 8 7 6 6 6 4 4 3 4
32 31 32 30 29 31 33 32 28 26 27 26 25 24 22 20 19 18 17 16 16 17 17 16 15 14 13 12 12 11 10 10 9 8 8 7 7 6 5 4 3 3
33 31 29 24 24 29 32 30 27 27 28 29 29 27 24 23 21 19 18 17 16 16 16 15 14 14 14 13 12 11 11 10 10 9 9 8 7 7 6 6 6 4
29 27 25 22 22 27 30 28 25 26 27 28 29 29 27 24 23 21 20 19 17 16 15 15 14 14 14 14 13 12 11 11 11 10 10 9 8 7 7 8 7 7
22 22 25 26 26 26 27 25 23 22 22 23 23 25 26 25 23 22 21 21 20 17 16 15 14 14 14 14 14 13 13 12 12 12 11 11 10 8 8 9 9 9
17 20 24 27 29 28 25 23 22 18 16 17 17 16 17 19 18 16 17 20 21 19 17 15 14 14 14 14 14 14 14 14 14 14 13 13 14 12 11 11 11 11
13 17 20 25 27 25 21 19 21 19 15 16 18 16 13 12 14 15 16 20 23 22 20 17 15 16 16 15 15 15 16 16 17 16 16 17 17 16 15 14 13 12
14 16 17 21 21 20 18 16 16 16 14 13 16 16 12 10 14 17 18 20 22 23 22 20 19 19 18 18 18 17 17 18 18 19 19 19 20 19 19 19 17 15
16 17 17 18 17 16 17 16 13 11 11 11 12 14 14 15 20 22 21 24 26 25 25 23 21 20 18 17 17 17 17 18 19 19 20 21 22 22 23 23 21 20
15 17 20 20 18 16 15 16 17 16 18 20 21 23 24 24 27 27 26 28 30 28 27 24 20 17 15 14 15 15 15 16 18 19 19 20 22 23 24 24 24 24
19 20 21 21 22 23 21 21 22 22 23 23 23 23 22 21 25 29 30 31 30 27 26 23 18 16 15 13 13 12 11 13 15 17 18 19 21 22 23 24 25 26
24 23 21 21 24 24 23 23 22 22 24 24 22 21 20 21 27 31 30 28 28 26 23 19 17 14 11 9 8 8 10 11 12 14 15 17 19 21 22 23 23 25
22 23 22 23 23 22 22 23 23 25 25 23 20 20 22 24 26 27 25 25 27 23 17 13 10 8 6 6 8 10 12 13 14 14 15 15 16 18 20 21 22 23
18 20 20 20 21 21 22 23 24 25 25 22 21 21 23 24 24 24 25 24 21 15 10 7 5 4 5 7 10 13 14 14 13 14 15 15 15 14 16 17 19 21
16 19 18 18 18 19 19 20 20 20 19 19 18 18 20 22 22 21 21 18 13 10 7 5 4 4 6 8 11 13 14 12 10 10 12 13 13 12 11 12 14 17
11 13 14 15 16 17 17 17 16 16 15 15 14 14 14 14 14 13 11 10 8 7 5 4 4 6 7 10 12 13 13 11 9 9 10 10 10 9 8 8 10 14
10 11 12 13 13 13 13 14 13 12 12 12 11 11 11 9 8 7 5 4 4 4 4 4 6 6 7 8 10 10 11 10 9 8 8 8 6 5 5 5 6 9
6 7 6 6 6 8 9 9 9 9 8 8 8 8 8 7 5 4 3 3 4 4 5 6 6 6 6 6 7 7 8 8 7 6 5 4 2 1 1 2 4 6
4 6 7 6 4 5 7 8 8 7 5 5 6 5 5 5 4 3 3 4 6 7 7 8 7 7 6 4 4 4 5 5 4 3 2 1 2 3 5 5 5 6
4 4 8 10 8 8 9 9 8 6 5 4 4 4 3 3 3 2 2 2 5 7 9 9 8 7 5 4 3 3 3 3 3 3 2 3 4 4 5 5 4 4
Wind_Direction
173 167 180 196 191 187 185 184 185 185 183 180 174 168 164 159 155 150 143 134 129 125 123 121 120 121 120 120 121 121 119 113 109 109 109 109 110 109 107 100 94 92
174 163 200 207 197 197 195 192 193 192 189 184 178 172 168 164 161 157 151 144 140 136 132 129 126 125 124 125 125 121 117 113 109 110 109 107 109 110 110 107 95 83
180 180 211 207 201 202 201 199 202 200 196 191 184 177 173 169 166 163 159 156 154 149 146 143 137 132 128 129 129 123 118 116 112 110 107 105 105 105 109 110 97 84
192 203 214 212 209 206 203 203 206 207 204 200 193 186 181 175 170 168 166 166 166 161 158 157 154 147 140 140 139 131 125 123 119 116 112 110 104 99 103 107 100 91
200 213 215 216 214 208 205 206 209 211 209 205 200 194 190 184 177 173 171 172 172 170 167 165 163 159 154 153 151 144 140 137 132 128 123 120 117 105 99 99 101 98
200 216 219 219 216 209 207 208 210 214 213 209 205 200 197 193 188 184 178 176 176 176 175 173 171 170 169 167 164 159 154 151 147 143 138 133 132 125 113 105 105 107
199 214 222 225 221 212 210 211 211 215 216 214 208 205 203 199 197 195 189 183 181 181 183 183 182 181 181 183 181 176 173 171 167 162 159 157 151 147 142 136 128 123
202 214 222 228 228 218 212 212 211 213 217 218 213 209 207 205 202 201 199 194 189 186 188 191 192 190 189 193 194 191 190 191 189 185 182 183 181 176 172 175 182 167
208 214 217 227 232 221 213 212 212 212 214 218 217 212 209 208 207 206 204 202 197 194 194 194 197 198 198 203 207 205 205 207 209 207 202 201 202 202 197 200 208 208
212 212 212 223 231 222 213 211 214 214 211 212 213 211 210 209 210 212 213 210 204 199 198 199 200 203 207 211 213 215 216 219 222 223 224 223 218 216 218 220 226 229
214 212 214 221 225 218 210 209 216 219 212 207 207 207 209 209 209 217 222 219 214 206 201 203 204 207 214 217 218 221 224 228 230 231 236 240 237 232 229 231 237 240
222 220 219 217 212 207 200 199 206 212 207 203 201 197 201 205 210 226 237 231 228 223 214 213 216 218 224 227 226 229 233 236 238 238 241 245 246 243 238 238 242 245
215 207 204 199 195 189 183 186 198 204 204 205 204 198 202 215 222 237 247 242 242 242 234 231 235 234 237 239 238 241 244 245 244 245 248 249 250 251 247 244 244 246
189 184 187 189 186 177 168 169 180 187 185 187 191 195 210 247 251 245 242 239 245 251 248 248 250 247 248 250 249 250 253 256 255 253 254 254 254 256 256 252 248 248
174 175 177 181 181 171 162 163 166 175 191 201 206 211 225 246 248 240 233 233 239 245 248 252 254 251 251 253 255 259 262 265 265 260 259 258 256 257 258 255 252 251
161 168 166 167 171 168 173 192 204 217 230 230 225 223 224 230 234 230 226 231 240 245 245 248 250 249 253 260 268 272 271 269 269 267 267 266 264 262 260 257 255 254
175 178 176 178 182 185 196 208 211 216 221 217 213 212 215 224 230 228 226 231 240 245 246 249 252 257 268 281 289 292 290 284 281 279 278 277 275 271 267 264 260 256
181 184 189 188 186 194 208 210 208 211 209 203 201 206 213 223 228 228 228 233 239 244 249 254 260 269 281 300 314 320 317 310 302 295 289 284 281 278 275 271 266 259
181 185 189 190 194 207 214 206 204 206 202 198 203 212 215 218 223 226 229 234 239 242 246 250 257 271 294 318 328 332 329 320 312 304 296 289 285 281 278 273 267 261
194 195 195 197 202 206 203 197 200 204 202 205 215 221 218 214 217 223 223 225 228 224 220 225 234 264 301 322 329 332 333 327 316 306 299 294 291 286 279 272 264 258
202 201 198 197 193 188 187 190 194 195 195 198 202 204 205 204 204 206 206 205 203 198 204 224 250 291 314 326 331 336 342 340 332 323 314 308 306 302 292 276 259 250
165 168 162 159 159 158 159 161 162 162 161 161 161 159 163 168 169 173 178 180 185 199 221 251 284 303 315 321 327 339 351 356 352 342 332 323 319 315 305 283 257 245
133 135 135 135 138 140 141 142 143 143 141 139 139 136 136 139 142 148 164 182 200 233 261 274 284 293 301 310 321 335 349 357 359 352 341 334 329 320 305 279 246 234
164 154 150 147 144 142 145 147 146 143 144 145 145 137 129 130 136 141 166 211 233 249 259 263 267 272 278 293 313 329 340 350 355 350 344 340 334 315 202 183 175 183
242 211 203 200 195 175 167 166 162 158 160 159 153 143 126 120 121 120 144 200 225 232 234 237 241 247 254 269 300 321 332 341 339 331 324 265 197 168 159 154 148 149
318 255 217 210 213 207 191 182 180 183 194 195 181 169 152 136 131 120 124 188 221 225 224 223 226 232 236 240 258 292 311 315 307 292 268 234 213 199 188 181 173 162